Location: Newark
(48.1500°N, 2.9667°W)
Time: 14:37:50
(UTC+00:00)

A-11 Canister half - Pass Details

Date: 21 January 2020
Orbit: 1524 x 1684 km, 47.3° (Epoch: 28 February)

Event Time Altitude Azimuth Distance (km) Brightness Sun altitude
Rises 21:46:18 0° 269° (W) 4,718 12.1 -47.7°
Reaches altitude 10° 21:49:19 10° 269° (W) 3,752 11.4 -48.1°
Enters shadow 21:54:07 35° 269° (W) 2,335 10.1 -48.8°
Maximum altitude 21:58:53 86° 183° (S) 1,608 - -49.5°
Drops below altitude 10° 22:08:49 10° 96° (E) 3,879 - -50.9°
Sets 22:11:59 0° 96° (E) 4,884 - -51.3°
